"Pseudo-MPEC" for C0GQ1F5

Created 2023 Mar 19 13:22:06 UT using Find_Orb

Click here for an explanation of pseudo-MPECs

 
 Astrometry: 
     C0GQ1F5* C2023 03 17VR'ApwY(b.ugYkB9d60uXoWiQt`!(-c7$:K,VY[Dl@+jWoe5dAl-V00
     C0GQ1F5  C2023 03 17s@-YujO)S@-nkmJ$(Hq.iVxL=56_[D2U+EPut3Ontw`g!dIJ5WmlV00
     C0GQ1F5  C2023 03 17/mM\.f=RRr^wYK6b?09YR;D!?Y32%B%Co;R5X^g*vd`0iPL/afBmV00
     C0GQ1F5  C2023 03 17'@H[2Y$k#s,/cG*Dob.89Z!TFDG'do'+mx/8U\xEePrcy[q7NR9(V00
     C0GQ1F5 mC2023 03 17R7)Z!R;@]crl!MOkNp0XiNW$EIRQ4*S=TIYNaBF-xM6xeH)C7WU;V00
     C0GQ1F5 mC2023 03 17Xm.t[l'RAstrometry05Cd=@dJ8ap09I0pXKM6s[dTME-7[cZyTcV00
     C0GQ1F5 mC2023 03 17PrU7Bf=a%AqPSv#Do8b$?.10iNDhTy+*KavnMm/,4Z6B09f+N^$\V00
     C0GQ1F5 mC2023 03 17I4%wYmQ2S5]:1+AYn'GNi_1/?q^Wut0#CGT/TCredacted;Fn/RiV00
     C0GQ1F5 mC2023 03 18hK5)i%BThaKG!D1U!.V/=1R=Yao#OJN?SqxuclickKf\QmTxnRc#V00
     C0GQ1F5 mC2023 03 18SKYbBDn_$V/'_Y/$2V-+CC\6Q4^]Q;6tRxs^w0mXpgN8G+yR(viMV00
     C0GQ1F5 mC2023 03 18WV0/qeE,d,Ho=oMgunogoT@\khereTi0S1[-Q[9;yy=forIpfP];V00
     C0GQ1F5 mC2023 03 18E-\napx;Ra=n)x!ZYnu3ml6dXf!sebUZJWPHOljdq^mp_N)-Ip!pV00
     C0GQ1F5 mC2023 03 19,?Ns@^)Wr-iI/roccexplanationY[!LQ;4H$+Itkhdc$#F6uS%xV00
     C0GQ1F5 mC2023 03 19Qm%n`p-ke-3ee79VYuvtxB0sOiLkAsq5W_-#Jn)8ZHOM$.iy+dQ'V00
     C0GQ1F5 mC2023 03 19N%WQ9JM($_h1blk*:m3AqBeK').W[?u2vh]Iq;.9Mp+-;j!.#BZEV00
     C0GQ1F5 mC2023 03 19-_6;iHwbw/^fFb]bJviu[vjKQSOM3t[LUKgDMd,KNE7Natj1JY`+V00

Station data:
(V00) Kitt Peak-Bok  (N31.963125 W111.600190)  US/Arizona.  Observers T. A.
   Pruyne, B. M. Africano, E. J. Christensen, G. A. Farneth, D. C. Fuls, A.
   R. Gibbs, A. D. Grauer, H. Gröller, J. A. Johnson, R. A. Kowalski, S. M.
   Larson, G. J. Leonard, D. Rankin, R. L. Seaman, F. C. Shelly, K. W.
   Wierzchoś. 2.25-m reflector + CCD.

Orbital elements:  C0GQ1F5
   Perihelion 2023 Feb 21.10594 +/- 0.17 TT =  2:32:32 (JD 2459996.60594)
Epoch 2023 Mar 19.0 TT = JDT 2460022.5   Earth MOID: 0.0372   Ma: 0.0898
M  20.36705848 +/- 0.12             (J2000 ecliptic)             AutoNEOCP
n   0.78655315 +/- 0.000844         Peri.   13.90482 +/- 0.35
a   1.16229757 +/- 0.000831         Node   137.68871 +/- 0.18
e   0.1171571 +/- 0.000564          Incl.    1.12484 +/- 0.008
P   1.25/457.68d           H 28.70  G  0.15   U  8.0
q 1.02612606 +/- 0.000138    Q 1.29846907 +/- 0.00158
From 16 observations 2023 Mar. 17-19 (44.0 hr); mean residual 0".14
Residuals in arcseconds: 
230317 V00  .12-  .14+    230317 V00  .00   .01+    230319 V00  .01-  .14-    
230317 V00  .03-  .07-    230317 V00  .16-  .04+    230319 V00  .08+  .05+    
230317 V00  .31+  .26-    230318 V00  .05+  .01+    230319 V00  .10-  .21+    
230317 V00  .06+  .40+    230318 V00  .11-  .01-    230319 V00  .06+  .02+    
230317 V00  .11+  .11+    230318 V00  .04+  .18-    
230317 V00  .14-  .18-    230318 V00  .05-  .21-    

Ephemerides (geocentric):
Date (UTC) HH   RA             Dec           delta  r     elong  mag " sig PA
---- --------  ------------   ------------  ------ ------ -----  --- --------
2023 03 19 13  11 41 20.877   +20 45 27.69  .04455 1.0374 159.7 23.1 .422 108
2023 03 19 14  11 41 28.698   +20 44 56.74  .04458 1.0374 159.7 23.1 .417 107
2023 03 19 15  11 41 36.510   +20 44 25.72  .04461 1.0375 159.7 23.1 .411 106
2023 03 19 16  11 41 44.312   +20 43 54.61  .04463 1.0375 159.6 23.1 .404 105
2023 03 19 17  11 41 52.104   +20 43 23.42  .04466 1.0375 159.6 23.1 .396 104
2023 03 19 18  11 41 59.886   +20 42 52.15  .04469 1.0376 159.6 23.1 .388 103
2023 03 19 19  11 42 07.659   +20 42 20.80  .04471 1.0376 159.6 23.1 .380 101
2023 03 19 20  11 42 15.423   +20 41 49.37  .04474 1.0376 159.6 23.1 .370 100
2023 03 19 21  11 42 23.176   +20 41 17.85  .04477 1.0377 159.6 23.1 .360  99
2023 03 19 22  11 42 30.921   +20 40 46.26  .04480 1.0377 159.6 23.1 .350  97
2023 03 19 23  11 42 38.656   +20 40 14.59  .04482 1.0377 159.6 23.1 .339  95
2023 03 20 00  11 42 46.381   +20 39 42.83  .04485 1.0378 159.6 23.1 .327  93
2023 03 20 01  11 42 54.097   +20 39 11.00  .04488 1.0378 159.6 23.1 .315  91
2023 03 20 02  11 43 01.803   +20 38 39.08  .04491 1.0378 159.6 23.1 .303  89
2023 03 20 03  11 43 09.499   +20 38 07.09  .04493 1.0379 159.6 23.1 .290  87
2023 03 20 04  11 43 17.187   +20 37 35.02  .04496 1.0379 159.5 23.1 .278  84
2023 03 20 05  11 43 24.864   +20 37 02.86  .04499 1.0380 159.5 23.1 .265  81
2023 03 20 06  11 43 32.533   +20 36 30.63  .04502 1.0380 159.5 23.1 .252  77
2023 03 20 07  11 43 40.192   +20 35 58.32  .04504 1.0380 159.5 23.1 .240  73
2023 03 20 08  11 43 47.841   +20 35 25.92  .04507 1.0381 159.5 23.1 .229  69
2023 03 20 09  11 43 55.481   +20 34 53.45  .04510 1.0381 159.5 23.1 .218  64
2023 03 20 10  11 44 03.111   +20 34 20.90  .04513 1.0381 159.5 23.1 .209  58
2023 03 20 11  11 44 10.733   +20 33 48.27  .04515 1.0382 159.5 23.1 .202  52
2023 03 20 12  11 44 18.344   +20 33 15.56  .04518 1.0382 159.5 23.1 .197  45
2023 03 20 13  11 44 25.947   +20 32 42.77  .04521 1.0382 159.5 23.1 .195  37
2023 03 20 14  11 44 33.540   +20 32 09.90  .04524 1.0383 159.5 23.1 .196  29
2023 03 20 15  11 44 41.123   +20 31 36.96  .04527 1.0383 159.5 23.1 .200  22
2023 03 20 16  11 44 48.697   +20 31 03.94  .04529 1.0383 159.4 23.1 .209  14
2023 03 20 17  11 44 56.262   +20 30 30.83  .04532 1.0384 159.4 23.1 .220   7
2023 03 20 18  11 45 03.818   +20 29 57.65  .04535 1.0384 159.4 23.1 .235   1
2023 03 20 19  11 45 11.364   +20 29 24.39  .04538 1.0385 159.4 23.1 .253 175
2023 03 20 20  11 45 18.901   +20 28 51.06  .04541 1.0385 159.4 23.1 .273 170
2023 03 20 21  11 45 26.428   +20 28 17.64  .04544 1.0385 159.4 23.1 .296 165
2023 03 20 22  11 45 33.946   +20 27 44.15  .04547 1.0386 159.4 23.1 .320 162
2023 03 20 23  11 45 41.455   +20 27 10.58  .04549 1.0386 159.4 23.1 .347 158
2023 03 21 00  11 45 48.955   +20 26 36.93  .04552 1.0386 159.4 23.1 .375 155
2023 03 21 01  11 45 56.446   +20 26 03.20  .04555 1.0387 159.4 23.1 .405 152
2023 03 21 02  11 46 03.927   +20 25 29.40  .04558 1.0387 159.4 23.1 .436 150
2023 03 21 03  11 46 11.399   +20 24 55.52  .04561 1.0387 159.4 23.1 .468 148
2023 03 21 04  11 46 18.861   +20 24 21.56  .04564 1.0388 159.3 23.1 .502 146
2023 03 21 05  11 46 26.315   +20 23 47.53  .04567 1.0388 159.3 23.1 .536 144
2023 03 21 06  11 46 33.759   +20 23 13.42  .04569 1.0389 159.3 23.1 .572 143
2023 03 21 07  11 46 41.194   +20 22 39.23  .04572 1.0389 159.3 23.1 .609 141
2023 03 21 08  11 46 48.620   +20 22 04.97  .04575 1.0389 159.3 23.1 .646 140
2023 03 21 09  11 46 56.037   +20 21 30.62  .04578 1.0390 159.3 23.1 .685 139
2023 03 21 10  11 47 03.445   +20 20 56.21  .04581 1.0390 159.3 23.1 .725 138
2023 03 21 11  11 47 10.843   +20 20 21.71  .04584 1.0390 159.3 23.1 .765 137
2023 03 21 12  11 47 18.233   +20 19 47.14  .04587 1.0391 159.3 23.1 .807 136